Terug naar catalogus

COSMOS 1333

ActiefMilitairPO
NORAD 13033·PAYLOAD·🇷🇺 Russia

Gelanceerd Jan 14, 1982 vanaf Plesetsk Cosmodrome

Loading…

Volgende Passages (komende 24 uur)

TLE

VersSource: Space-Track

Epoch: Sep 14, 2026, 00:36 UTC

1 13033U 82003A   26257.02562742  .00000035  00000-0  21617-4 0  9992
2 13033  82.9381  99.6017 0031122 303.8712 208.6359 13.73479312238385

Volg COSMOS 1333 in realtime met AllMySat

Download on the App Store